Change the Weather History Date:

Saturday, July 5, 2014

  Actual Average Record
Temperature  
Mean Temperature 73 °F 76 °F  
Max Temperature 83 °F 86 °F 102 °F (1999)
Min Temperature 62 °F 66 °F 51 °F (1979)
Degree Days  
Heating Degree Days 0 0  
Month to date heating degree days 0 0  
Since 1 June heating degree days 1 18  
Since 1 July heating degree days 0 0  
Cooling Degree Days 8 11  
Month to date cooling degree days 71 53  
Year to date cooling degree days 378 331  
Since 1 June cooling degree days 318 266  
Growing Degree Days 22 (Base 50)    
Moisture  
Dew Point 49 °F    
Average Humidity 47    
Maximum Humidity 65    
Minimum Humidity 28    
Precipitation  
Precipitation 0.00 in 0.13 in 1.87 in (2006)
Month to date precipitation 0.18 0.71  
Year to date precipitation 25.60 19.84  
Sea Level Pressure  
Sea Level Pressure 30.19 in    
Wind  
Wind Speed 8 mph (WNW)    
Max Wind Speed 16 mph    
Max Gust Speed 22 mph    
Visibility 10 miles    
Events      
T = Trace of Precipitation, MM = Missing Value Source: NWS Daily Summary

Daily Weather History Graph

Daily Weather History Graph

Search for Another Location

Airport or City:

Trip Planner

Search our weather history database for the weather conditions in past years. The results will help you decide how hot, cold, wet, or windy it might be!

Date:

Astronomy

Jul. 05, 2014 Rise Set
Actual Time 5:43 AM EDT 8:39 PM EDT
Civil Twilight 5:10 AM EDT 9:12 PM EDT
Nautical Twilight 4:29 AM EDT 9:53 PM EDT
Astronomical Twilight 3:41 AM EDT 10:41 PM EDT
Moon 1:36 PM EDT (7/5) 12:30 AM EDT (7/5)
Length of Visible Light 16h 01m
Length of Day
14h 56m
First Quarter, 52% of the Moon is Illuminated
Jul 5
First Quarter
Jul 12
Full
Jul 18
Last Quarter
Jul 26
New
Aug 3
First Quarter

Hourly Weather History & Observations

Time (EDT) Temp. Dew Point Humidity Pressure Visibility Wind Dir Wind Speed Gust Speed Precip Events Conditions
12:56 AM 66.0 °F 46.9 °F 50% 30.16 in 10.0 mi NW 10.4 mph - N/A   Clear
1:56 AM 66.0 °F 48.0 °F 52% 30.17 in 10.0 mi NW 12.7 mph - N/A   Clear
2:56 AM 64.9 °F 48.9 °F 56% 30.18 in 10.0 mi WNW 12.7 mph - N/A   Clear
3:56 AM 64.9 °F 50.0 °F 58% 30.18 in 10.0 mi WNW 12.7 mph - N/A   Clear
4:56 AM 64.0 °F 50.0 °F 60% 30.19 in 10.0 mi NW 15.0 mph - N/A   Clear
5:56 AM 63.0 °F 50.0 °F 63% 30.20 in 10.0 mi NW 10.4 mph - N/A   Clear
6:56 AM 64.9 °F 48.9 °F 56% 30.22 in 10.0 mi NW 8.1 mph - N/A   Clear
7:56 AM 66.9 °F 48.9 °F 52% 30.24 in 10.0 mi WNW 9.2 mph - N/A   Clear
8:56 AM 70.0 °F 46.9 °F 44% 30.26 in 10.0 mi NW 6.9 mph - N/A   Clear
9:56 AM 73.0 °F 48.0 °F 41% 30.25 in 10.0 mi North 12.7 mph - N/A   Clear
10:56 AM 75.0 °F 46.9 °F 37% 30.25 in 10.0 mi NNW 12.7 mph - N/A   Clear
11:56 AM 75.9 °F 46.0 °F 35% 30.22 in 10.0 mi Variable 4.6 mph - N/A   Clear
12:56 PM 78.1 °F 46.9 °F 33% 30.22 in 10.0 mi WSW 4.6 mph - N/A   Clear
1:56 PM 79.0 °F 46.0 °F 31% 30.21 in 10.0 mi Variable 3.5 mph - N/A   Clear
2:56 PM 81.0 °F 48.0 °F 31% 30.20 in 10.0 mi West 9.2 mph - N/A   Clear
3:56 PM 82.0 °F 48.9 °F 31% 30.19 in 10.0 mi West 5.8 mph - N/A   Clear
4:56 PM 82.0 °F 46.0 °F 28% 30.17 in 10.0 mi WNW 5.8 mph - N/A   Partly Cloudy
5:56 PM 82.0 °F 48.0 °F 30% 30.15 in 10.0 mi West 5.8 mph - N/A   Partly Cloudy
6:56 PM 80.1 °F 52.0 °F 38% 30.15 in 10.0 mi WSW 8.1 mph - N/A   Scattered Clouds
7:56 PM 77.0 °F 55.0 °F 47% 30.14 in 10.0 mi SW 6.9 mph - N/A   Scattered Clouds
8:56 PM 75.0 °F 55.0 °F 50% 30.14 in 10.0 mi SW 8.1 mph - N/A   Mostly Cloudy
9:56 PM 73.9 °F 53.1 °F 48% 30.15 in 10.0 mi SW 9.2 mph - N/A   Mostly Cloudy
10:56 PM 73.0 °F 53.1 °F 49% 30.14 in 10.0 mi Variable 6.9 mph - N/A   Scattered Clouds
11:56 PM 69.1 °F 54.0 °F 58% 30.14 in 10.0 mi WNW 3.5 mph - N/A   Scattered Clouds